Tracking 19644 objects as of 24-Apr-2019
HD Live streaming from Space Station
objects crossing your sky now

SL-14 DEB

Track SL-14 DEB now!
10-day predictions


NORAD ID: 39972
Int'l Code: 1987-068CY
Perigee: 930.4 km
Apogee: 955.8 km
Inclination: 82.5 °
Period: 103.8 minutes
Semi major axis: 7314 km
RCS: 0.0139 m2 (small)
Launch date: August 18, 1987
Source: Commonwealth of Independent States (former USSR) (CIS)
Launch site: PLESETSK MISSILE AND SPACE COMPLEX (PKMTR)

Note: This is SATELLITE DEBRIS
aabbcc
Your satellite tracking list
Your tracking list is empty




NASA's NSSDC Master Catalog

Two Line Element Set (TLE):
1 39972U 87068CY  19082.00608861 +.00000191 +00000-0 +14831-3 0  9999
2 39972 082.4964 172.4762 0017304 329.4551 150.6536 13.87910599809799
Source of the keplerian elements: AFSPC